EZS94ZT EGMC-LSGG

Flight info

Callsign EZS94ZT
Flight time 1h 16m
Altitude 30000
Route DET M604 LYD M189 HAWKE UL612 RESMI UM975 PEKIM DCT PILUL DCT PIMUP DCT PIXIS DCT PIBAT DCT LUSAR
Aircraft A320/M-SDE2E3FGHIJ1RWXYZ/LB1

Departure

Time 2026-04-24 13:33
Airport London Southend Airport (EGMC)

Arrival

Time 2026-04-24 14:50
Airport Geneva International Airport (LSGG)
Time Latitude Longitude Altitude Speed Heading
2026-04-24 12:44 51.56965 0.70286 54 ft 0 kts 93°
2026-04-24 13:23 51.56967 0.70253 54 ft 4 kts 105°
2026-04-24 13:23 51.56977 0.70219 53 ft 4 kts 140°
2026-04-24 13:23 51.56996 0.70206 54 ft 2 kts 187°
2026-04-24 13:24 51.57002 0.70207 52 ft 0 kts 188°
2026-04-24 13:26 51.56987 0.70204 54 ft 2 kts 187°
2026-04-24 13:27 51.56954 0.70197 54 ft 7 kts 188°
2026-04-24 13:27 51.56901 0.70151 54 ft 9 kts 234°
2026-04-24 13:27 51.56872 0.70064 54 ft 9 kts 262°
2026-04-24 13:27 51.56879 0.69972 54 ft 8 kts 278°
2026-04-24 13:28 51.56888 0.69888 54 ft 8 kts 279°
2026-04-24 13:28 51.56898 0.69786 54 ft 10 kts 279°
2026-04-24 13:28 51.56910 0.69670 54 ft 10 kts 279°
2026-04-24 13:28 51.56919 0.69563 54 ft 9 kts 274°
2026-04-24 13:29 51.56910 0.69453 52 ft 9 kts 260°
2026-04-24 13:29 51.56900 0.69362 54 ft 9 kts 261°
2026-04-24 13:29 51.56880 0.69250 52 ft 10 kts 240°
2026-04-24 13:29 51.56841 0.69160 53 ft 9 kts 242°
2026-04-24 13:30 51.56856 0.69084 49 ft 6 kts 320°
2026-04-24 13:30 51.56890 0.69031 55 ft 9 kts 296°
2026-04-24 13:30 51.56853 0.68909 54 ft 15 kts 234°
2026-04-24 13:30 51.56776 0.68740 52 ft 23 kts 234°
2026-04-24 13:31 51.56686 0.68540 51 ft 21 kts 234°
2026-04-24 13:31 51.56602 0.68351 52 ft 19 kts 234°
2026-04-24 13:31 51.56526 0.68240 54 ft 10 kts 210°
2026-04-24 13:31 51.56524 0.68190 54 ft 4 kts 323°
2026-04-24 13:32 51.56542 0.68209 54 ft 6 kts 62°
2026-04-24 13:32 51.56556 0.68250 53 ft 0 kts 54°
2026-04-24 13:32 51.56713 0.68599 51 ft 79 kts 54°
2026-04-24 13:33 51.57172 0.69621 53 ft 144 kts 54°
2026-04-24 13:33 51.57812 0.71040 550 ft 160 kts 56°
2026-04-24 13:33 51.58468 0.72494 1397 ft 161 kts 56°
2026-04-24 13:33 51.59155 0.74021 1905 ft 178 kts 55°
2026-04-24 13:34 51.59923 0.75761 2296 ft 203 kts 56°
2026-04-24 13:34 51.60474 0.77971 2772 ft 228 kts 85°
2026-04-24 13:34 51.60070 0.80531 3404 ft 251 kts 123°
2026-04-24 13:34 51.58672 0.82259 4332 ft 264 kts 158°
2026-04-24 13:35 51.56854 0.82879 5349 ft 270 kts 171°
2026-04-24 13:35 51.54970 0.83086 6343 ft 273 kts 175°
2026-04-24 13:35 51.53060 0.83151 7269 ft 276 kts 177°
2026-04-24 13:35 51.51128 0.83198 8163 ft 279 kts 176°
2026-04-24 13:36 51.49179 0.83277 9084 ft 282 kts 176°
2026-04-24 13:36 51.47205 0.83398 9961 ft 285 kts 175°
2026-04-24 13:36 51.45206 0.83556 10651 ft 296 kts 175°
2026-04-24 13:36 51.43071 0.83750 10978 ft 317 kts 175°
2026-04-24 13:37 51.40828 0.83965 11596 ft 327 kts 175°
2026-04-24 13:37 51.38543 0.84185 12381 ft 331 kts 175°
2026-04-24 13:37 51.36240 0.84409 13198 ft 333 kts 176°
2026-04-24 13:37 51.33909 0.84637 13943 ft 338 kts 176°
2026-04-24 13:38 51.31554 0.84867 14648 ft 340 kts 176°
2026-04-24 13:38 51.29984 0.85019 15103 ft 343 kts 176°
2026-04-24 13:38 51.26776 0.85325 16020 ft 346 kts 177°
2026-04-24 13:38 51.25185 0.85475 16529 ft 346 kts 177°
2026-04-24 13:39 51.22773 0.85702 17207 ft 349 kts 178°
2026-04-24 13:39 51.20344 0.85932 17933 ft 351 kts 178°
2026-04-24 13:39 51.17897 0.86166 18587 ft 354 kts 178°
2026-04-24 13:39 51.15424 0.86399 19143 ft 358 kts 178°
2026-04-24 13:40 51.12927 0.86632 19679 ft 362 kts 178°
2026-04-24 13:40 51.10397 0.86868 20192 ft 366 kts 179°
2026-04-24 13:40 51.07838 0.87110 20732 ft 370 kts 179°
2026-04-24 13:40 51.05257 0.87355 21257 ft 374 kts 179°
2026-04-24 13:41 51.02656 0.87308 21766 ft 375 kts 189°
2026-04-24 13:41 51.00113 0.86431 22278 ft 374 kts 201°
2026-04-24 13:41 50.97741 0.84738 22783 ft 374 kts 213°
2026-04-24 13:41 50.95633 0.82335 23297 ft 375 kts 221°
2026-04-24 13:42 50.93603 0.79719 23825 ft 377 kts 221°
2026-04-24 13:42 50.91561 0.77095 24267 ft 379 kts 221°
2026-04-24 13:42 50.89502 0.74456 24697 ft 381 kts 221°
2026-04-24 13:42 50.87428 0.71816 25091 ft 384 kts 221°
2026-04-24 13:43 50.85336 0.69164 25468 ft 387 kts 221°
2026-04-24 13:43 50.83224 0.66487 25855 ft 390 kts 221°
2026-04-24 13:43 50.81099 0.63794 26246 ft 393 kts 221°
2026-04-24 13:43 50.78962 0.61085 26642 ft 395 kts 221°
2026-04-24 13:44 50.76811 0.58361 27025 ft 398 kts 221°
2026-04-24 13:44 50.74674 0.55656 27400 ft 400 kts 221°
2026-04-24 13:44 50.72498 0.52901 27782 ft 402 kts 221°
2026-04-24 13:44 50.70308 0.50131 28158 ft 405 kts 221°
2026-04-24 13:45 50.68104 0.47349 28526 ft 407 kts 221°
2026-04-24 13:45 50.65883 0.44550 28900 ft 410 kts 221°
2026-04-24 13:45 50.63652 0.41744 29232 ft 412 kts 221°
2026-04-24 13:45 50.61395 0.38909 29526 ft 416 kts 221°
2026-04-24 13:46 50.59124 0.36063 29852 ft 419 kts 221°
2026-04-24 13:46 50.56832 0.33195 30190 ft 422 kts 221°
2026-04-24 13:46 50.54534 0.30319 30525 ft 423 kts 221°
2026-04-24 13:46 50.52221 0.27427 30815 ft 425 kts 221°
2026-04-24 13:47 50.49900 0.24533 31110 ft 427 kts 221°
2026-04-24 13:47 50.47565 0.21629 31372 ft 429 kts 220°
2026-04-24 13:47 50.45219 0.18716 31645 ft 431 kts 220°
2026-04-24 13:47 50.42769 0.16004 31944 ft 434 kts 211°
2026-04-24 13:48 50.39973 0.14206 32322 ft 437 kts 197°
2026-04-24 13:48 50.36957 0.13530 32694 ft 442 kts 183°
2026-04-24 13:48 50.33889 0.14047 33071 ft 446 kts 169°
2026-04-24 13:48 50.30973 0.15755 33440 ft 451 kts 154°
2026-04-24 13:49 50.28317 0.18360 33832 ft 451 kts 149°
2026-04-24 13:49 50.25700 0.21057 34233 ft 450 kts 149°
2026-04-24 13:49 50.23094 0.23746 34580 ft 448 kts 149°
2026-04-24 13:49 50.20493 0.26424 34903 ft 447 kts 149°
2026-04-24 13:50 50.17897 0.29094 35207 ft 446 kts 149°
2026-04-24 13:50 50.15307 0.31762 35508 ft 446 kts 149°
2026-04-24 13:50 50.12720 0.34421 35795 ft 445 kts 149°
2026-04-24 13:50 50.10140 0.37069 36083 ft 444 kts 149°
2026-04-24 13:51 50.07560 0.39706 36353 ft 443 kts 149°
2026-04-24 13:51 50.04980 0.42340 36610 ft 443 kts 149°
2026-04-24 13:51 50.02407 0.44967 36873 ft 442 kts 149°
2026-04-24 13:51 49.99841 0.47586 37133 ft 441 kts 149°
2026-04-24 13:52 49.97276 0.50204 37255 ft 439 kts 149°
2026-04-24 13:52 49.94733 0.52799 37256 ft 436 kts 149°
2026-04-24 13:52 49.89676 0.57944 37264 ft 434 kts 149°
2026-04-24 13:53 49.84688 0.63221 37255 ft 435 kts 142°
2026-04-24 13:53 49.79997 0.69144 37258 ft 435 kts 142°
2026-04-24 13:54 49.75295 0.75052 37251 ft 436 kts 143°
2026-04-24 13:54 49.70585 0.80965 37249 ft 436 kts 143°
2026-04-24 13:55 49.65877 0.86866 37249 ft 435 kts 143°
2026-04-24 13:55 49.61172 0.92742 37249 ft 435 kts 143°
2026-04-24 13:56 49.56462 0.98606 37247 ft 435 kts 143°
2026-04-24 13:56 49.51741 1.04453 37239 ft 435 kts 143°
2026-04-24 13:57 49.47027 1.10292 37246 ft 435 kts 142°
2026-04-24 13:57 49.42321 1.16118 37251 ft 434 kts 142°
2026-04-24 13:58 49.37605 1.21922 37238 ft 435 kts 143°
2026-04-24 13:58 49.32880 1.27710 37247 ft 434 kts 142°
2026-04-24 13:59 49.28169 1.33486 37238 ft 434 kts 142°
2026-04-24 13:59 49.23452 1.39266 37221 ft 434 kts 142°
2026-04-24 14:00 49.18735 1.45032 37204 ft 435 kts 142°
2026-04-24 14:00 49.14000 1.50791 37197 ft 435 kts 142°
2026-04-24 14:01 49.09254 1.56537 37209 ft 435 kts 142°
2026-04-24 14:01 49.04510 1.62285 37199 ft 436 kts 141°
2026-04-24 14:02 48.99760 1.68020 37197 ft 436 kts 142°
2026-04-24 14:02 48.94999 1.73741 37197 ft 436 kts 141°
2026-04-24 14:03 48.90246 1.79464 37214 ft 435 kts 142°
2026-04-24 14:03 48.85508 1.85152 37218 ft 433 kts 142°
2026-04-24 14:04 48.80786 1.90796 37240 ft 432 kts 142°
2026-04-24 14:04 48.76071 1.96421 37244 ft 431 kts 142°
2026-04-24 14:05 48.71360 2.02030 37239 ft 430 kts 142°
2026-04-24 14:05 48.66650 2.07614 37241 ft 430 kts 142°
2026-04-24 14:06 48.61936 2.13193 37231 ft 430 kts 142°
2026-04-24 14:06 48.57323 2.18927 37213 ft 430 kts 135°
2026-04-24 14:07 48.53713 2.26091 37225 ft 428 kts 126°
2026-04-24 14:07 48.50337 2.33469 37203 ft 426 kts 126°
2026-04-24 14:08 48.46957 2.40805 37210 ft 426 kts 126°
2026-04-24 14:08 48.43580 2.48116 37193 ft 425 kts 126°
2026-04-24 14:09 48.40228 2.55362 37204 ft 424 kts 126°
2026-04-24 14:09 48.36857 2.62635 37205 ft 423 kts 126°
2026-04-24 14:10 48.33488 2.69884 37216 ft 422 kts 126°
2026-04-24 14:10 48.30130 2.77088 37203 ft 420 kts 126°
2026-04-24 14:11 48.26428 2.83817 37192 ft 418 kts 139°
2026-04-24 14:12 48.19564 2.91846 37199 ft 417 kts 143°
2026-04-24 14:12 48.14972 2.97144 37189 ft 416 kts 142°
2026-04-24 14:13 48.10386 3.02427 37185 ft 415 kts 143°
2026-04-24 14:13 48.05392 3.06669 37183 ft 414 kts 157°
2026-04-24 14:14 48.00085 3.10012 37180 ft 414 kts 157°
2026-04-24 14:14 47.92125 3.15018 37176 ft 414 kts 156°
2026-04-24 14:15 47.86818 3.18345 37173 ft 414 kts 156°
2026-04-24 14:15 47.81513 3.21669 37168 ft 414 kts 156°
2026-04-24 14:16 47.76207 3.24996 37167 ft 414 kts 156°
2026-04-24 14:17 47.68227 3.29967 37162 ft 415 kts 156°
2026-04-24 14:17 47.60237 3.34920 37135 ft 415 kts 156°
2026-04-24 14:18 47.54911 3.38208 37163 ft 414 kts 157°
2026-04-24 14:18 47.49613 3.41487 37175 ft 412 kts 157°
2026-04-24 14:19 47.44322 3.44753 37175 ft 412 kts 158°
2026-04-24 14:19 47.39029 3.48008 37165 ft 411 kts 158°
2026-04-24 14:20 47.33761 3.51235 37161 ft 411 kts 158°
2026-04-24 14:20 47.28477 3.54461 37143 ft 412 kts 158°
2026-04-24 14:21 47.23184 3.57698 37132 ft 412 kts 158°
2026-04-24 14:21 47.17879 3.60933 37127 ft 413 kts 158°
2026-04-24 14:22 47.13464 3.63615 37125 ft 413 kts 158°
2026-04-24 14:23 47.05481 3.68461 37121 ft 414 kts 159°
2026-04-24 14:23 47.00157 3.71689 37123 ft 414 kts 159°
2026-04-24 14:23 46.97588 3.73615 37125 ft 416 kts 148°
2026-04-24 14:24 46.95307 3.76233 37120 ft 419 kts 137°
2026-04-24 14:24 46.93404 3.79478 37009 ft 424 kts 126°
2026-04-24 14:24 46.91962 3.83244 36748 ft 427 kts 115°
2026-04-24 14:24 46.90889 3.87310 36490 ft 428 kts 114°
2026-04-24 14:25 46.89830 3.91362 36095 ft 426 kts 114°
2026-04-24 14:25 46.88762 3.95387 35584 ft 423 kts 115°
2026-04-24 14:25 46.87693 3.99383 35083 ft 421 kts 115°
2026-04-24 14:25 46.86625 4.03361 34564 ft 420 kts 115°
2026-04-24 14:26 46.85560 4.07326 34013 ft 418 kts 115°
2026-04-24 14:26 46.84505 4.11268 33502 ft 415 kts 115°
2026-04-24 14:26 46.83462 4.15182 33004 ft 411 kts 115°
2026-04-24 14:26 46.82430 4.19056 32504 ft 408 kts 116°
2026-04-24 14:27 46.81402 4.22906 32015 ft 406 kts 116°
2026-04-24 14:27 46.80483 4.26793 31523 ft 406 kts 109°
2026-04-24 14:27 46.79882 4.30820 31030 ft 405 kts 107°
2026-04-24 14:27 46.79304 4.34826 30556 ft 402 kts 107°
2026-04-24 14:28 46.78728 4.38801 30060 ft 399 kts 107°
2026-04-24 14:28 46.78154 4.42749 29580 ft 395 kts 107°
2026-04-24 14:28 46.77586 4.46634 29132 ft 390 kts 107°
2026-04-24 14:28 46.77022 4.50469 28698 ft 383 kts 107°
2026-04-24 14:29 46.76466 4.54242 28289 ft 378 kts 108°
2026-04-24 14:29 46.75917 4.57959 27860 ft 373 kts 108°
2026-04-24 14:29 46.75372 4.61634 27423 ft 368 kts 108°
2026-04-24 14:29 46.74835 4.65257 27005 ft 364 kts 108°
2026-04-24 14:30 46.74302 4.68852 26565 ft 360 kts 108°
2026-04-24 14:30 46.73773 4.72405 26140 ft 357 kts 108°
2026-04-24 14:30 46.73247 4.75927 25695 ft 354 kts 108°
2026-04-24 14:30 46.72722 4.79423 25252 ft 352 kts 108°
2026-04-24 14:31 46.72199 4.82902 24792 ft 350 kts 108°
2026-04-24 14:31 46.71677 4.86361 24325 ft 349 kts 108°
2026-04-24 14:31 46.71158 4.89806 23860 ft 347 kts 108°
2026-04-24 14:31 46.70640 4.93235 23364 ft 346 kts 108°
2026-04-24 14:32 46.70124 4.96637 22903 ft 343 kts 108°
2026-04-24 14:32 46.69611 5.00017 22459 ft 340 kts 108°
2026-04-24 14:32 46.69102 5.03370 22023 ft 338 kts 108°
2026-04-24 14:32 46.68595 5.06706 21593 ft 336 kts 107°
2026-04-24 14:33 46.68093 5.10012 21167 ft 334 kts 107°
2026-04-24 14:33 46.67590 5.13307 20743 ft 332 kts 107°
2026-04-24 14:33 46.67088 5.16580 20321 ft 331 kts 107°
2026-04-24 14:33 46.66589 5.19840 19940 ft 329 kts 107°
2026-04-24 14:34 46.66098 5.23080 19625 ft 326 kts 107°
2026-04-24 14:34 46.65616 5.26290 19259 ft 324 kts 107°
2026-04-24 14:34 46.65139 5.29490 18869 ft 323 kts 106°
2026-04-24 14:34 46.64663 5.32673 18509 ft 321 kts 106°
2026-04-24 14:35 46.64183 5.35836 18120 ft 320 kts 106°
2026-04-24 14:35 46.63703 5.38991 17718 ft 318 kts 106°
2026-04-24 14:35 46.63225 5.42129 17334 ft 317 kts 106°
2026-04-24 14:35 46.62617 5.45184 16967 ft 312 kts 116°
2026-04-24 14:36 46.61570 5.47905 16603 ft 307 kts 129°
2026-04-24 14:36 46.60134 5.50167 16236 ft 303 kts 141°
2026-04-24 14:36 46.58463 5.52019 15876 ft 302 kts 144°
2026-04-24 14:36 46.56782 5.53851 15523 ft 301 kts 144°
2026-04-24 14:37 46.55110 5.55681 15181 ft 301 kts 144°
2026-04-24 14:37 46.53445 5.57507 14818 ft 300 kts 144°
2026-04-24 14:37 46.51778 5.59333 14500 ft 299 kts 144°
2026-04-24 14:37 46.50116 5.61152 14167 ft 299 kts 143°
2026-04-24 14:38 46.48459 5.62960 13823 ft 298 kts 143°
2026-04-24 14:38 46.46802 5.64764 13445 ft 298 kts 143°
2026-04-24 14:38 46.45140 5.66556 13094 ft 296 kts 146°
2026-04-24 14:38 46.43294 5.67811 12740 ft 294 kts 166°
2026-04-24 14:39 46.41300 5.68432 12397 ft 293 kts 168°
2026-04-24 14:39 46.39304 5.69021 12009 ft 293 kts 168°
2026-04-24 14:39 46.37311 5.69600 11666 ft 291 kts 169°
2026-04-24 14:39 46.35326 5.70176 11315 ft 291 kts 169°
2026-04-24 14:40 46.33343 5.70751 10956 ft 290 kts 169°
2026-04-24 14:40 46.31364 5.71327 10617 ft 289 kts 169°
2026-04-24 14:40 46.29401 5.71898 10287 ft 287 kts 169°
2026-04-24 14:40 46.27446 5.72466 9925 ft 286 kts 169°
2026-04-24 14:41 46.25496 5.73033 9534 ft 285 kts 169°
2026-04-24 14:41 46.23554 5.73597 9163 ft 284 kts 169°
2026-04-24 14:41 46.21625 5.74155 8804 ft 282 kts 169°
2026-04-24 14:41 46.19706 5.74707 8468 ft 281 kts 169°
2026-04-24 14:42 46.17803 5.75256 7992 ft 278 kts 169°
2026-04-24 14:42 46.15902 5.75806 7594 ft 278 kts 169°
2026-04-24 14:42 46.14051 5.76345 7415 ft 262 kts 169°
2026-04-24 14:42 46.12337 5.76843 7290 ft 241 kts 169°
2026-04-24 14:43 46.10740 5.77307 6981 ft 231 kts 169°
2026-04-24 14:43 46.09197 5.77754 6563 ft 228 kts 169°
2026-04-24 14:43 46.07649 5.78202 6102 ft 226 kts 169°
2026-04-24 14:43 46.06136 5.78818 5974 ft 219 kts 149°
2026-04-24 14:44 46.05134 5.80330 5997 ft 204 kts 115°
2026-04-24 14:44 46.04896 5.82293 5994 ft 200 kts 82°
2026-04-24 14:44 46.05443 5.84099 5989 ft 199 kts 49°
2026-04-24 14:44 46.06409 5.85534 5865 ft 200 kts 44°
2026-04-24 14:45 46.07365 5.86904 5636 ft 194 kts 45°
2026-04-24 14:45 46.08304 5.88262 5392 ft 190 kts 45°
2026-04-24 14:45 46.09225 5.89600 5163 ft 186 kts 45°
2026-04-24 14:45 46.10143 5.90936 4917 ft 184 kts 45°
2026-04-24 14:46 46.11026 5.92221 4684 ft 182 kts 45°
2026-04-24 14:46 46.11912 5.93510 4440 ft 180 kts 44°
2026-04-24 14:46 46.12788 5.94787 4204 ft 178 kts 44°
2026-04-24 14:46 46.13653 5.96048 3972 ft 176 kts 44°
2026-04-24 14:47 46.14510 5.97298 3749 ft 175 kts 44°
2026-04-24 14:47 46.15368 5.98549 3513 ft 176 kts 45°
2026-04-24 14:47 46.16228 5.99805 3286 ft 175 kts 45°
2026-04-24 14:47 46.17081 6.01051 3058 ft 174 kts 45°
2026-04-24 14:48 46.17928 6.02288 2825 ft 172 kts 45°
2026-04-24 14:48 46.18761 6.03507 2595 ft 167 kts 45°
2026-04-24 14:48 46.19558 6.04671 2386 ft 158 kts 46°
2026-04-24 14:48 46.20317 6.05781 2157 ft 152 kts 46°
2026-04-24 14:49 46.21048 6.06852 1948 ft 148 kts 46°
2026-04-24 14:49 46.21764 6.07901 1746 ft 146 kts 46°
2026-04-24 14:49 46.22473 6.08939 1553 ft 144 kts 46°
2026-04-24 14:49 46.23176 6.09968 1408 ft 135 kts 46°
2026-04-24 14:50 46.23687 6.10720 1380 ft 72 kts 45°
2026-04-24 14:50 46.23853 6.10985 1379 ft 16 kts 76°
2026-04-24 14:50 46.23826 6.11070 1378 ft 8 kts 150°
2026-04-24 14:50 46.23785 6.11081 1378 ft 3 kts 172°
2026-04-24 14:51 46.23743 6.11090 1384 ft 7 kts 172°
2026-04-24 14:51 46.23714 6.11085 1386 ft 4 kts 201°
2026-04-24 14:51 46.23675 6.11066 1387 ft 8 kts 163°
2026-04-24 14:51 46.23629 6.11126 1399 ft 8 kts 136°
2026-04-24 14:52 46.23588 6.11165 1397 ft 6 kts 177°
2026-04-24 14:52 46.23550 6.11129 1396 ft 7 kts 225°
2026-04-24 14:52 46.23518 6.11083 1398 ft 7 kts 225°
2026-04-24 14:52 46.23478 6.11024 1397 ft 9 kts 225°
2026-04-24 14:53 46.23437 6.10964 1396 ft 8 kts 225°
2026-04-24 14:53 46.23401 6.10912 1398 ft 7 kts 225°
2026-04-24 14:53 46.23362 6.10915 1398 ft 7 kts 138°
2026-04-24 14:53 46.23330 6.10960 1398 ft 3 kts 135°
2026-04-24 14:54 46.23326 6.10966 1399 ft 0 kts 136°